| time (UTC) | temp C | wind direction | speed KPH | gust KPH | rain 1hr cm | rain 24hr cm | rain mn cm | humidity % | barometer mb |
| 20260905093703 | 18 | 312 | 9.7 | 20.9 | 0.00 | 0.00 | 0.00 | 67 | 1024.0 |
| 20260905093204 | 18 | 306 | 8.0 | 14.5 | 0.00 | 0.00 | 0.00 | 67 | 1024.0 |
| 20260905091704 | 18 | 267 | 3.2 | 19.3 | 0.00 | 0.00 | 0.00 | 71 | 1023.9 |
| 20260905091204 | 17 | 289 | 4.8 | 19.3 | 0.00 | 0.00 | 0.00 | 73 | 1023.9 |
| 20260905090704 | 17 | 300 | 11.3 | 20.9 | 0.00 | 0.00 | 0.00 | 74 | 1024.0 |
| 20260905090205 | 17 | 288 | 8.0 | 16.1 | 0.00 | 0.00 | 0.00 | 74 | 1023.9 |
| 20260905084705 | 16 | 268 | 3.2 | 9.7 | 0.00 | 0.00 | 0.00 | 77 | 1023.8 |
| 20260905084203 | 16 | 279 | 4.8 | 14.5 | 0.00 | 0.00 | 0.00 | 78 | 1023.8 |
| 20260905083204 | 15 | 239 | 4.8 | 14.5 | 0.00 | 0.00 | 0.00 | 81 | 1023.8 |
| 20260905081703 | 14 | 281 | 3.2 | 12.9 | 0.00 | 0.00 | 0.00 | 85 | 1023.7 |
| 20260905081203 | 14 | 258 | 9.7 | 20.9 | 0.00 | 0.00 | 0.00 | 86 | 1023.7 |
| 20260905080703 | 13 | 200 | 3.2 | 11.3 | 0.00 | 0.00 | 0.00 | 88 | 1023.6 |
| 20260905080204 | 13 | 212 | 1.6 | 14.5 | 0.00 | 0.00 | 0.00 | 88 | 1023.5 |
| 20260905074203 | 13 | 252 | 3.2 | 4.8 | 0.00 | 0.00 | 0.00 | 91 | 1023.4 |
| 20260905073704 | 12 | 282 | 3.2 | 16.1 | 0.00 | 0.03 | 0.00 | 92 | 1023.5 |
| 20260905073204 | 12 | 285 | 3.2 | 12.9 | 0.00 | 0.03 | 0.00 | 92 | 1023.4 |
| 20260905071704 | 12 | 265 | 3.2 | 11.3 | 0.00 | 0.13 | 0.00 | 94 | 1023.3 |
| 20260905071203 | 12 | 202 | 1.6 | 4.8 | 0.00 | 0.13 | 0.00 | 93 | 1023.2 |
| 20260905070704 | 12 | 209 | 1.6 | 8.0 | 0.00 | 0.13 | 0.00 | 94 | 1023.2 |
| 20260905070205 | 11 | 245 | 1.6 | 4.8 | 0.00 | 0.13 | 0.00 | 94 | 1023.1 |
| 20260905064704 | 11 | 191 | 1.6 | 8.0 | 0.00 | 0.13 | 0.00 | 94 | 1023.1 |
| 20260905064204 | 11 | 200 | 1.6 | 4.8 | 0.00 | 0.13 | 0.00 | 93 | 1023.1 |
| 20260905063704 | 11 | 239 | 0.0 | 1.6 | 0.00 | 0.13 | 0.00 | 93 | 1023.0 |
| 20260905061704 | 11 | 237 | 0.0 | 3.2 | 0.00 | 0.13 | 0.00 | 93 | 1022.7 |
| 20260905061204 | 11 | 238 | 0.0 | 0.0 | 0.00 | 0.13 | 0.00 | 93 | 1022.7 |
| 20260905060204 | 11 | 239 | 1.6 | 4.8 | 0.00 | 0.13 | 0.00 | 93 | 1022.5 |
| 20260905054704 | 11 | 256 | 0.0 | 1.6 | 0.00 | 0.13 | 0.00 | 93 | 1022.2 |
| 20260905053203 | 11 | 256 | 0.0 | 8.0 | 0.00 | 0.13 | 0.00 | 93 | 1022.0 |
| 20260905051203 | 11 | 281 | 1.6 | 8.0 | 0.00 | 0.13 | 0.00 | 93 | 1021.7 |
| 20260905050704 | 11 | 271 | 1.6 | 8.0 | 0.00 | 0.13 | 0.00 | 93 | 1021.7 |
| 20260905050203 | 11 | 259 | 1.6 | 4.8 | 0.00 | 0.13 | 0.00 | 93 | 1021.7 |
| 20260905044204 | 11 | 268 | 0.0 | 3.2 | 0.00 | 0.13 | 0.00 | 93 | 1021.6 |
| 20260905043204 | 11 | 268 | 1.6 | 4.8 | 0.00 | 0.13 | 0.00 | 93 | 1021.4 |
| 20260905041203 | 11 | 285 | 3.2 | 8.0 | 0.00 | 0.13 | 0.00 | 92 | 1021.3 |
| 20260905040704 | 11 | 286 | 3.2 | 12.9 | 0.00 | 0.13 | 0.00 | 92 | 1021.3 |
| 20260905034203 | 11 | 232 | 1.6 | 3.2 | 0.00 | 0.13 | 0.00 | 92 | 1021.1 |
| 20260905033704 | 11 | 232 | 0.0 | 3.2 | 0.00 | 0.13 | 0.00 | 92 | 1020.8 |
| 20260905031703 | 12 | 245 | 0.0 | 0.0 | 0.00 | 0.13 | 0.00 | 92 | 1020.7 |
| 20260905031204 | 12 | 245 | 1.6 | 3.2 | 0.00 | 0.13 | 0.00 | 92 | 1020.7 |
| 20260905030704 | 12 | 247 | 0.0 | 1.6 | 0.00 | 0.13 | 0.00 | 92 | 1020.6 |
| 20260905030205 | 12 | 247 | 0.0 | 3.2 | 0.00 | 0.13 | 0.00 | 92 | 1020.5 |
| 20260905024704 | 12 | 245 | 0.0 | 1.6 | 0.00 | 0.13 | 0.00 | 92 | 1020.5 |
| 20260905024205 | 12 | 245 | 0.0 | 3.2 | 0.00 | 0.13 | 0.00 | 92 | 1020.5 |
| 20260905023703 | 12 | 246 | 1.6 | 3.2 | 0.00 | 0.13 | 0.00 | 92 | 1020.4 |
| 20260905023203 | 12 | 248 | 1.6 | 8.0 | 0.00 | 0.13 | 0.00 | 91 | 1020.4 |
| 20260905021704 | 12 | 267 | 1.6 | 4.8 | 0.00 | 0.13 | 0.00 | 92 | 1020.2 |
| 20260905021204 | 12 | 236 | 0.0 | 3.2 | 0.00 | 0.13 | 0.00 | 92 | 1020.1 |
| 20260905020704 | 12 | 277 | 0.0 | 8.0 | 0.00 | 0.13 | 0.00 | 92 | 1020.1 |
| 20260905014703 | 12 | 237 | 0.0 | 0.0 | 0.00 | 0.13 | 0.00 | 91 | 1020.0 |
| 20260905014204 | 12 | 237 | 0.0 | 0.0 | 0.00 | 0.13 | 0.00 | 91 | 1020.1 |
| 20260905013704 | 12 | 237 | 0.0 | 1.6 | 0.00 | 0.13 | 0.00 | 91 | 1020.1 |
| 20260905013204 | 12 | 238 | 0.0 | 3.2 | 0.00 | 0.13 | 0.00 | 91 | 1020.0 |
| 20260905011704 | 12 | 239 | 3.2 | 11.3 | 0.00 | 0.13 | 0.00 | 91 | 1019.9 |
| 20260905011204 | 12 | 212 | 0.0 | 0.0 | 0.00 | 0.13 | 0.00 | 91 | 1019.9 |
| 20260905010704 | 12 | 212 | 0.0 | 0.0 | 0.00 | 0.13 | 0.00 | 91 | 1019.8 |
| 20260905010204 | 12 | 212 | 0.0 | 4.8 | 0.00 | 0.13 | 0.00 | 91 | 1019.8 |
| 20260905004704 | 12 | 223 | 1.6 | 3.2 | 0.00 | 0.13 | 0.00 | 90 | 1019.9 |
| 20260905003704 | 12 | 219 | 0.0 | 1.6 | 0.00 | 0.13 | 0.00 | 90 | 1019.9 |
| 20260905003204 | 12 | 219 | 0.0 | 3.2 | 0.00 | 0.13 | 0.00 | 90 | 1019.9 |
| 20260905001704 | 12 | 219 | 1.6 | 3.2 | 0.00 | 0.13 | 0.00 | 89 | 1019.9 |
| 20260905001204 | 12 | 219 | 1.6 | 3.2 | 0.00 | 0.13 | 0.00 | 89 | 1019.8 |
| 20260905000204 | 12 | 218 | 0.0 | 3.2 | 0.00 | 0.13 | 0.00 | 89 | 1019.7 |
| 20260904234704 | 12 | 217 | 0.0 | 1.6 | 0.00 | 0.13 | 0.00 | 88 | 1019.6 |
| 20260904234204 | 12 | 217 | 0.0 | 1.6 | 0.00 | 0.13 | 0.00 | 88 | 1019.6 |
| 20260904233704 | 12 | 217 | 0.0 | 1.6 | 0.00 | 0.13 | 0.00 | 88 | 1019.6 |
| 20260904231203 | 13 | 236 | 0.0 | 1.6 | 0.00 | 0.13 | 0.00 | 88 | 1019.6 |
| 20260904230703 | 13 | 236 | 0.0 | 4.8 | 0.00 | 0.13 | 0.00 | 87 | 1019.5 |
| 20260904224704 | 13 | 199 | 3.2 | 4.8 | 0.00 | 0.13 | 0.13 | 87 | 1019.3 |
| 20260904224205 | 13 | 209 | 0.0 | 1.6 | 0.00 | 0.13 | 0.13 | 86 | 1019.3 |
| 20260904223704 | 13 | 209 | 0.0 | 3.2 | 0.00 | 0.13 | 0.13 | 86 | 1019.3 |
| 20260904223204 | 13 | 209 | 0.0 | 1.6 | 0.00 | 0.13 | 0.13 | 86 | 1019.2 |
| 20260904221704 | 13 | 212 | 0.0 | 3.2 | 0.00 | 0.13 | 0.13 | 85 | 1019.2 |
| 20260904221204 | 13 | 213 | 0.0 | 0.0 | 0.00 | 0.13 | 0.13 | 85 | 1019.1 |
| 20260904220705 | 13 | 213 | 0.0 | 0.0 | 0.00 | 0.13 | 0.13 | 85 | 1019.2 |
| 20260904220204 | 13 | 213 | 1.6 | 4.8 | 0.00 | 0.13 | 0.13 | 85 | 1019.2 |
| 20260904214704 | 13 | 234 | 0.0 | 0.0 | 0.00 | 0.13 | 0.13 | 84 | 1019.1 |
| 20260904214204 | 13 | 234 | 0.0 | 0.0 | 0.00 | 0.13 | 0.13 | 84 | 1019.1 |
| 20260904213703 | 13 | 234 | 0.0 | 0.0 | 0.00 | 0.13 | 0.13 | 84 | 1019.1 |
| 20260904213205 | 13 | 238 | 0.0 | 0.0 | 0.00 | 0.13 | 0.13 | 84 | 1019.1 |
| 20260904211704 | 14 | 238 | 0.0 | 0.0 | 0.00 | 0.13 | 0.13 | 82 | 1019.0 |
| 20260904211204 | 14 | 238 | 0.0 | 0.0 | 0.00 | 0.13 | 0.13 | 82 | 1019.0 |
| 20260904210204 | 14 | 238 | 0.0 | 3.2 | 0.00 | 0.13 | 0.13 | 82 | 1018.8 |
| 20260904204204 | 15 | 240 | 0.0 | 0.0 | 0.00 | 0.13 | 0.13 | 80 | 1018.7 |
| 20260904203704 | 15 | 240 | 0.0 | 1.6 | 0.00 | 0.13 | 0.13 | 80 | 1018.7 |
| 20260904203203 | 15 | 240 | 1.6 | 1.6 | 0.00 | 0.13 | 0.13 | 80 | 1018.6 |
| 20260904201704 | 15 | 242 | 1.6 | 8.0 | 0.00 | 0.13 | 0.13 | 79 | 1018.6 |
| 20260904201204 | 15 | 254 | 1.6 | 4.8 | 0.00 | 0.13 | 0.13 | 79 | 1018.5 |
| 20260904200704 | 15 | 262 | 1.6 | 3.2 | 0.00 | 0.13 | 0.13 | 79 | 1018.6 |
| 20260904200204 | 16 | 258 | 3.2 | 14.5 | 0.00 | 0.13 | 0.13 | 79 | 1018.6 |
| 20260904194203 | 16 | 293 | 3.2 | 11.3 | 0.00 | 0.13 | 0.13 | 78 | 1018.5 |
| 20260904193705 | 16 | 257 | 1.6 | 8.0 | 0.00 | 0.13 | 0.13 | 77 | 1018.3 |
| 20260904193204 | 16 | 249 | 3.2 | 11.3 | 0.00 | 0.13 | 0.13 | 77 | 1018.2 |
| 20260904191704 | 16 | 282 | 3.2 | 9.7 | 0.00 | 0.13 | 0.13 | 76 | 1017.9 |
| 20260904190704 | 16 | 246 | 3.2 | 8.0 | 0.00 | 0.13 | 0.13 | 75 | 1017.5 |
| 20260904184704 | 17 | 215 | 1.6 | 11.3 | 0.00 | 0.13 | 0.13 | 74 | 1017.4 |
| 20260904184204 | 17 | 246 | 3.2 | 9.7 | 0.00 | 0.13 | 0.13 | 74 | 1017.2 |
| 20260904183204 | 17 | 269 | 8.0 | 19.3 | 0.00 | 0.13 | 0.13 | 74 | 1017.1 |
| 20260904181704 | 17 | 290 | 3.2 | 16.1 | 0.00 | 0.13 | 0.13 | 73 | 1016.8 |
| 20260904174704 | 17 | 263 | 4.8 | 11.3 | 0.00 | 0.13 | 0.13 | 69 | 1016.6 |
| 20260904174204 | 18 | 278 | 3.2 | 12.9 | 0.00 | 0.13 | 0.13 | 69 | 1016.5 |
| 20260904173705 | 18 | 212 | 3.2 | 16.1 | 0.00 | 0.13 | 0.13 | 68 | 1016.6 |
| 20260904173204 | 18 | 295 | 3.2 | 14.5 | 0.00 | 0.13 | 0.13 | 68 | 1016.6 |
| 20260904171704 | 18 | 250 | 3.2 | 12.9 | 0.00 | 0.13 | 0.13 | 66 | 1016.4 |
| 20260904170703 | 18 | 203 | 1.6 | 14.5 | 0.00 | 0.13 | 0.13 | 66 | 1016.4 |
| 20260904170203 | 18 | 266 | 4.8 | 16.1 | 0.00 | 0.13 | 0.13 | 66 | 1016.3 |
| 20260904164705 | 18 | 239 | 4.8 | 16.1 | 0.00 | 0.13 | 0.13 | 65 | 1016.2 |
| 20260904164204 | 18 | 280 | 8.0 | 14.5 | 0.00 | 0.13 | 0.13 | 66 | 1016.3 |
| 20260904163704 | 18 | 272 | 3.2 | 11.3 | 0.00 | 0.13 | 0.13 | 66 | 1016.2 |
| 20260904163204 | 18 | 286 | 4.8 | 16.1 | 0.00 | 0.13 | 0.13 | 66 | 1016.1 |
| 20260904161704 | 18 | 281 | 6.4 | 12.9 | 0.00 | 0.13 | 0.13 | 67 | 1015.9 |
| 20260904161204 | 18 | 195 | 4.8 | 11.3 | 0.00 | 0.13 | 0.13 | 67 | 1015.9 |
| 20260904160203 | 19 | 248 | 4.8 | 19.3 | 0.00 | 0.13 | 0.13 | 66 | 1015.8 |
| 20260904154703 | 19 | 264 | 12.9 | 20.9 | 0.00 | 0.13 | 0.13 | 64 | 1015.7 |
| 20260904154204 | 19 | 261 | 4.8 | 14.5 | 0.00 | 0.13 | 0.13 | 64 | 1015.7 |
| 20260904153704 | 20 | 286 | 8.0 | 19.3 | 0.00 | 0.13 | 0.13 | 63 | 1015.7 |
| 20260904151703 | 20 | 279 | 6.4 | 19.3 | 0.00 | 0.13 | 0.13 | 63 | 1015.6 |
| 20260904151204 | 20 | 270 | 12.9 | 25.7 | 0.00 | 0.13 | 0.13 | 62 | 1015.7 |
| 20260904150703 | 20 | 269 | 8.0 | 19.3 | 0.00 | 0.13 | 0.13 | 64 | 1015.6 |
| 20260904150204 | 20 | 227 | 8.0 | 20.9 | 0.00 | 0.13 | 0.13 | 63 | 1015.6 |
| 20260904144204 | 20 | 248 | 8.0 | 19.3 | 0.00 | 0.13 | 0.13 | 63 | 1015.3 |
| 20260904143704 | 20 | 246 | 8.0 | 16.1 | 0.00 | 0.13 | 0.13 | 63 | 1015.3 |
| 20260904143204 | 19 | 284 | 8.0 | 20.9 | 0.00 | 0.13 | 0.13 | 65 | 1015.2 |
| 20260904141704 | 19 | 263 | 3.2 | 14.5 | 0.00 | 0.13 | 0.13 | 64 | 1015.4 |
| 20260904141204 | 19 | 218 | 4.8 | 12.9 | 0.00 | 0.13 | 0.13 | 64 | 1015.1 |
| 20260904140704 | 19 | 287 | 6.4 | 16.1 | 0.00 | 0.13 | 0.13 | 63 | 1015.2 |
| 20260904140204 | 19 | 258 | 4.8 | 16.1 | 0.00 | 0.13 | 0.13 | 64 | 1015.1 |
| 20260904134703 | 19 | 253 | 4.8 | 11.3 | 0.00 | 0.13 | 0.13 | 64 | 1015.2 |
| 20260904134204 | 19 | 250 | 4.8 | 19.3 | 0.00 | 0.13 | 0.13 | 64 | 1015.2 |
| 20260904133705 | 20 | 215 | 4.8 | 20.9 | 0.00 | 0.13 | 0.13 | 63 | 1015.3 |
| 20260904133204 | 20 | 205 | 4.8 | 24.1 | 0.00 | 0.13 | 0.13 | 64 | 1015.1 |
| 20260904131703 | 20 | 258 | 8.0 | 22.5 | 0.00 | 0.13 | 0.13 | 64 | 1015.0 |
| 20260904131204 | 20 | 252 | 11.3 | 29.0 | 0.00 | 0.13 | 0.13 | 66 | 1015.1 |
| 20260904130704 | 20 | 275 | 8.0 | 16.1 | 0.00 | 0.13 | 0.13 | 69 | 1015.1 |
| 20260904130203 | 20 | 179 | 3.2 | 20.9 | 0.00 | 0.13 | 0.13 | 69 | 1014.9 |
| 20260904124703 | 20 | 270 | 8.0 | 20.9 | 0.00 | 0.13 | 0.13 | 71 | 1014.7 |
| 20260904124203 | 20 | 213 | 8.0 | 20.9 | 0.00 | 0.13 | 0.13 | 71 | 1014.7 |
| 20260904123703 | 20 | 276 | 11.3 | 29.0 | 0.00 | 0.13 | 0.13 | 70 | 1014.7 |
| 20260904123203 | 20 | 295 | 14.5 | 27.4 | 0.00 | 0.13 | 0.13 | 70 | 1014.6 |
| 20260904121704 | 20 | 243 | 9.7 | 22.5 | 0.00 | 0.13 | 0.13 | 70 | 1014.5 |
| 20260904121205 | 20 | 289 | 14.5 | 32.2 | 0.00 | 0.13 | 0.13 | 70 | 1014.4 |
| 20260904120703 | 20 | 231 | 9.7 | 25.7 | 0.00 | 0.13 | 0.13 | 71 | 1014.4 |
| 20260904120203 | 20 | 269 | 9.7 | 22.5 | 0.00 | 0.13 | 0.13 | 71 | 1014.3 |
| 20260904114703 | 20 | 249 | 8.0 | 24.1 | 0.00 | 0.13 | 0.13 | 71 | 1014.1 |
| 20260904114204 | 20 | 274 | 11.3 | 22.5 | 0.00 | 0.13 | 0.13 | 70 | 1014.0 |
| 20260904113703 | 20 | 210 | 8.0 | 25.7 | 0.00 | 0.13 | 0.13 | 72 | 1014.0 |
| 20260904113203 | 20 | 278 | 9.7 | 27.4 | 0.00 | 0.13 | 0.13 | 73 | 1013.9 |
| 20260904111704 | 20 | 265 | 9.7 | 16.1 | 0.00 | 0.13 | 0.13 | 73 | 1013.8 |
| 20260904111203 | 20 | 286 | 9.7 | 24.1 | 0.00 | 0.13 | 0.13 | 74 | 1013.7 |
| 20260904110204 | 20 | 256 | 4.8 | 27.4 | 0.00 | 0.13 | 0.13 | 75 | 1013.5 |
| 20260904104204 | 20 | 234 | 11.3 | 25.7 | 0.00 | 0.13 | 0.13 | 75 | 1013.5 |
| 20260904103705 | 20 | 294 | 19.3 | 29.0 | 0.00 | 0.13 | 0.13 | 76 | 1013.7 |
| 20260904103204 | 20 | 289 | 8.0 | 27.4 | 0.00 | 0.13 | 0.13 | 79 | 1013.5 |
| 20260904101705 | 20 | 243 | 9.7 | 25.7 | 0.00 | 0.13 | 0.13 | 80 | 1013.4 |
| 20260904101204 | 20 | 288 | 14.5 | 24.1 | 0.00 | 0.13 | 0.13 | 81 | 1013.3 |
| 20260904100705 | 20 | 244 | 4.8 | 16.1 | 0.00 | 0.13 | 0.13 | 83 | 1013.1 |
| 20260904100204 | 20 | 280 | 8.0 | 22.5 | 0.00 | 0.13 | 0.13 | 83 | 1013.1 |
| 20260904094204 | 19 | 268 | 11.3 | 24.1 | 0.00 | 0.13 | 0.13 | 87 | 1012.8 |